EA3GKP-1 Weather Reports


Display with metric or nautical units.
time (UTC)temp
F
wind
direction
speed
MPH
gust
MPH
rain 1hr
in
rain 24hr
in
rain mn
in
humidity
%
barometer
mb
20260506174448 66 2 0.0 0.0 0.00 0.00 0.00 7 1010.0
20260506173509 67 3 0.0 0.0 0.00 0.00 0.00 7 1010.0
20260506172531 67 4 0.0 0.0 0.00 0.00 0.00 7 1010.0
20260506171553 67 2 0.0 0.0 0.00 0.00 0.00 7 1010.0
20260506170615 67 2 0.0 0.0 0.00 0.00 0.00 7 1010.0
20260506165637 67 2 0.0 0.0 0.00 0.00 0.00 7 1010.0
20260506164700 67 2 0.0 0.0 0.00 0.00 0.00 7 1010.0
20260506163723 67 4 0.0 0.0 0.00 0.00 0.00 7 1010.0
20260506162747 67 4 0.0 0.0 0.00 0.00 0.00 7 1010.0
20260506161807 67 1 0.0 0.0 0.00 0.00 0.00 7 1010.0
20260506160828 67 1 0.0 0.0 0.00 0.00 0.00 7 1010.0
20260506155852 67 2 0.0 0.0 0.00 0.00 0.00 7 1010.0
20260506154915 67 3 0.0 0.0 0.00 0.00 0.00 7 1010.0
20260506153935 67 1 0.0 0.0 0.00 0.00 0.00 7 1010.0
20260506152957 67 2 0.0 0.0 0.00 0.00 0.00 7 1010.0
20260506152021 67 2 0.0 0.0 0.00 0.00 0.00 7 1010.0
20260506151041 67 2 0.0 0.0 0.00 0.00 0.00 7 1010.0
20260506145125 67 2 0.0 0.0 0.00 0.00 0.00 7 1010.0
20260506144147 68 4 0.0 0.0 0.00 0.00 0.00 7 1010.0
20260506143210 68 2 0.0 0.0 0.00 0.00 0.00 7 1010.0
20260506142232 68 2 0.0 0.0 0.00 0.00 0.00 7 1010.0
20260506141254 69 2 0.0 0.0 0.00 0.00 0.00 7 1010.0
20260506140316 68 3 0.0 0.0 0.00 0.00 0.00 7 1010.0
20260506135338 68 3 0.0 0.0 0.00 0.00 0.00 7 1010.0
20260506134402 69 3 0.0 0.0 0.00 0.00 0.00 7 1010.0
20260506133422 69 3 0.0 0.0 0.00 0.00 0.00 7 1010.0
20260506132445 69 3 0.0 0.0 0.00 0.00 0.00 7 1010.0
20260506131507 69 2 0.0 0.0 0.00 0.00 0.00 7 1010.0
20260506125551 67 2 0.0 0.0 0.00 0.00 0.00 7 1011.0
20260506124615 68 4 0.0 0.0 0.00 0.00 0.00 7 1011.0
20260506123637 68 1 0.0 0.0 0.00 0.00 0.00 7 1011.0
20260506122657 68 4 0.0 0.0 0.00 0.00 0.00 7 1011.0
20260506121719 68 4 0.0 0.0 0.00 0.00 0.00 7 1011.0
20260506115804 69 3 0.0 0.0 0.00 0.00 0.00 7 1011.0
20260506114827 69 4 0.0 0.0 0.00 0.00 0.00 7 1011.0
20260506113925 69 3 0.0 0.0 0.00 0.00 0.00 7 1011.0
20260506113848 69 3 0.0 0.0 0.00 0.00 0.00 7 1011.0
20260506112912 69 4 0.0 0.0 0.00 0.00 0.00 7 1011.0
20260506111932 69 5 0.0 0.0 0.00 0.00 0.00 7 1011.0
20260506110954 69 5 0.0 0.0 0.00 0.00 0.00 7 1011.0
20260506110017 68 4 0.0 0.0 0.00 0.00 0.00 7 1011.0
20260506105039 70 3 0.0 0.0 0.00 0.00 0.00 7 1011.0
20260506104101 70 6 0.0 0.0 0.00 0.00 0.00 7 1011.0
20260506103123 68 4 0.0 0.0 0.00 0.00 0.00 7 1011.0
20260506102145 68 4 0.0 0.0 0.00 0.00 0.00 7 1012.0
20260506101210 67 4 0.0 0.0 0.00 0.00 0.00 7 1012.0
20260506095252 68 4 0.0 0.0 0.00 0.00 0.00 7 1012.0
20260506094314 67 4 0.0 0.0 0.00 0.00 0.00 7 1012.0
20260506093336 65 3 0.0 0.0 0.00 0.00 0.00 7 1012.0
20260506092400 64 6 0.0 0.0 0.00 0.00 0.00 7 1012.0
20260506091420 64 4 0.0 0.0 0.00 0.00 0.00 7 1012.0
20260506090442 64 3 0.0 0.0 0.00 0.00 0.00 7 1012.0
20260506085506 64 4 0.0 0.0 0.00 0.00 0.00 7 1012.0
20260506084527 64 5 0.0 0.0 0.00 0.00 0.00 7 1012.0
20260506083549 66 4 0.0 0.0 0.00 0.00 0.00 7 1012.0
20260506082611 64 6 0.0 0.0 0.00 0.00 0.00 7 1012.0
20260506081633 65 7 0.0 0.0 0.00 0.00 0.00 7 1012.0
20260506072857 63 7 0.0 0.0 0.00 0.00 0.00 7 1012.0
20260506072824 63 7 0.0 0.0 0.00 0.00 0.00 7 1012.0
20260506071846 62 7 0.0 0.0 0.00 0.00 0.00 7 1012.0
20260506062103 61 8 0.0 0.0 0.00 0.00 0.00 7 1011.0
20260506061123 61 9 0.0 0.0 0.00 0.00 0.00 8 1011.0
20260506060143 60 10 0.0 0.0 0.00 0.00 0.00 8 1011.0
20260506051334 56 12 0.0 0.0 0.00 0.00 0.00 10 1011.0
20260506050356 56 12 0.0 0.0 0.00 0.00 0.00 10 1011.0
20260506044440 56 12 0.0 0.0 0.00 0.00 0.00 10 1011.0
20260506043502 56 13 0.0 0.0 0.00 0.00 0.00 10 1011.0
20260506042524 57 9 0.0 0.0 0.00 0.00 0.00 10 1011.0
20260506041547 57 11 0.0 0.0 0.00 0.00 0.00 10 1011.0
20260506040609 57 12 0.0 0.0 0.00 0.00 0.00 10 1011.0
20260506035631 56 12 0.0 0.0 0.00 0.00 0.00 10 1011.0
20260506034653 56 10 0.0 0.0 0.00 0.00 0.00 10 1010.0
20260506033715 56 13 0.0 0.0 0.00 0.00 0.00 10 1010.0
20260506032739 57 12 0.0 0.0 0.00 0.00 0.00 10 1010.0
20260506031759 57 12 0.0 0.0 0.00 0.00 0.00 10 1010.0
20260506030822 57 10 0.0 0.0 0.00 0.00 0.00 10 1010.0
20260506025844 58 12 0.0 0.0 0.00 0.00 0.00 10 1010.0
20260506024907 57 13 0.0 0.0 0.00 0.00 0.00 10 1010.0
20260506023928 57 13 0.0 0.0 0.00 0.00 0.00 10 1010.0
20260506022950 57 14 0.0 0.0 0.00 0.00 0.00 12 1010.0
20260506022012 57 13 0.0 0.0 0.00 0.00 0.00 10 1010.0
20260506021034 58 14 0.0 0.0 0.00 0.00 0.00 12 1010.0
20260506020057 58 13 0.0 0.0 0.00 0.00 0.00 10 1010.0
20260506015119 58 13 0.0 0.0 0.00 0.00 0.00 10 1010.0
20260506014141 57 11 0.0 0.0 0.00 0.00 0.00 10 1010.0
20260506013203 58 12 0.0 0.0 0.00 0.00 0.00 10 1010.0
20260506012225 57 14 0.0 0.0 0.00 0.00 0.00 12 1010.0
20260506011251 58 13 0.0 0.0 0.00 0.00 0.00 10 1010.0
20260506010309 58 14 0.0 0.0 0.00 0.00 0.00 10 1010.0
20260506005332 58 13 0.0 0.0 0.00 0.00 0.00 10 1010.0
20260506004354 59 12 0.0 0.0 0.00 0.00 0.00 10 1010.0
20260506003416 59 12 0.0 0.0 0.00 0.00 0.00 10 1010.0
20260506002438 60 10 0.0 0.0 0.00 0.00 0.00 8 1010.0
20260506001500 60 11 0.0 0.0 0.00 0.00 0.00 8 1010.0
20260506000522 60 11 0.0 0.0 0.00 0.00 0.00 8 1010.0
20260505235544 61 8 0.0 0.0 0.00 0.00 0.00 8 1010.0
20260505234607 61 10 0.0 0.0 0.00 0.00 0.00 8 1010.0
20260505233629 61 9 0.0 0.0 0.00 0.00 0.00 8 1010.0
20260505232651 61 9 0.0 0.0 0.00 0.00 0.00 8 1010.0
20260505231713 61 7 0.0 0.0 0.00 0.00 0.00 8 1010.0
20260505230735 61 9 0.0 0.0 0.00 0.00 0.00 8 1010.0
20260505225759 62 9 0.0 0.0 0.00 0.00 0.00 8 1010.0
20260505224819 62 7 0.0 0.0 0.00 0.00 0.00 8 1010.0
20260505223842 62 6 0.0 0.0 0.00 0.00 0.00 8 1010.0
20260505221926 62 8 0.0 0.0 0.00 0.00 0.00 7 1011.0
20260505220951 62 7 0.0 0.0 0.00 0.00 0.00 7 1011.0
20260505220010 62 6 0.0 0.0 0.00 0.00 0.00 7 1011.0
20260505215032 63 6 0.0 0.0 0.00 0.00 0.00 7 1011.0
20260505214054 63 5 0.0 0.0 0.00 0.00 0.00 7 1011.0
20260505213116 63 8 0.0 0.0 0.00 0.00 0.00 7 1011.0
20260505212139 63 8 0.0 0.0 0.00 0.00 0.00 7 1011.0
20260505210225 63 5 0.0 0.0 0.00 0.00 0.00 7 1010.0
20260505205248 63 5 0.0 0.0 0.00 0.00 0.00 7 1010.0
20260505204307 62 6 0.0 0.0 0.00 0.00 0.00 7 1010.0
20260505203329 62 6 0.0 0.0 0.00 0.00 0.00 7 1010.0
20260505202351 62 7 0.0 0.0 0.00 0.00 0.00 8 1010.0
20260505201414 62 7 0.0 0.0 0.00 0.00 0.00 8 1010.0
20260505200436 62 9 0.0 0.0 0.00 0.00 0.00 8 1010.0
20260505195458 62 9 0.0 0.0 0.00 0.00 0.00 8 1010.0
20260505194520 63 6 0.0 0.0 0.00 0.00 0.00 7 1010.0
20260505193542 63 5 0.0 0.0 0.00 0.00 0.00 7 1010.0
20260505192604 64 5 0.0 0.0 0.00 0.00 0.00 7 1009.0
20260505191627 64 6 0.0 0.0 0.00 0.00 0.00 8 1009.0
20260505190649 65 8 0.0 0.0 0.00 0.00 0.00 8 1009.0
20260505185711 65 6 0.0 0.0 0.00 0.00 0.00 7 1009.0
20260505184735 65 6 0.0 0.0 0.00 0.00 0.00 7 1009.0
20260505183801 65 4 0.0 0.0 0.00 0.00 0.00 7 1009.0
20260505182817 65 4 0.0 0.0 0.00 0.00 0.00 7 1009.0
20260505181839 65 4 0.0 0.0 0.00 0.00 0.00 7 1009.0
20260505180901 65 7 0.0 0.0 0.00 0.00 0.00 7 1009.0
20260505175925 65 4 0.0 0.0 0.00 0.00 0.00 7 1009.0